This demonstration page uses our WeatherBlox Daily Observations layout. Learn more.

Left ArrowRight Arrow

39.29038, -76.61219

Hourly Observations for July 9, 2021

Temp ( °F °C ) Dew Point ( °F °C ) Humidity (%) Winds ( mph kmh ) Pressure ( in mb ) Visibility ( mi km ) Precip ( " mm )
12:33 am 00:33 Cloudy 74 23.3 67 19.4 79 79 N 10 17 29.81 1010 10 16 N/A
12:54 am 00:54 Cloudy 73 22.8 67 19.4 81 81 N 8 13 29.81 1010 8 13 0.00 0.00
1:05 am 01:05 Cloudy with Light Rain 73 22.8 67 19.4 81 81 N 7 11 29.80 1009 4 6 0.01 0.25
1:54 am 01:54 Cloudy with Light Rain 71 21.7 67 19.4 87 87 NNW 9 15 29.80 1009 6 10 0.02 0.51
2:46 am 02:46 Cloudy 72 22.2 67 19.4 84 84 NNW 9 15 29.78 1009 7 11 0.00 0.00
2:54 am 02:54 Cloudy 72 22.2 67 19.4 84 84 NW 10 17 29.78 1009 7 11 0.00 0.00
3:01 am 03:01 Cloudy 71 21.7 67 19.4 87 87 NW 8 13 29.78 1009 7 11 N/A
3:38 am 03:38 Cloudy with Light Rain 71 21.7 67 19.4 87 87 NW 8 13 29.78 1009 7 11 0.00 0.00
3:54 am 03:54 Cloudy 71 21.7 67 19.4 87 87 WNW 9 15 29.79 1009 8 13 0.00 0.00
4:54 am 04:54 Cloudy 72 22.2 68 20 87 87 NW 7 11 29.80 1009 10 16 N/A
5:54 am 05:54 Mostly Cloudy 71 21.7 67 19.4 87 87 WNW 7 11 29.83 1010 10 16 N/A
6:54 am 06:54 Mostly Cloudy 72 22.2 68 20 87 87 WNW 6 9 29.85 1011 10 16 N/A
7:54 am 07:54 Partly Cloudy 75 23.9 68 20 79 79 W 6 9 29.85 1011 10 16 N/A
8:54 am 08:54 Partly Cloudy 78 25.6 69 20.6 74 74 WNW 8 13 29.86 1011 10 16 N/A
9:54 am 09:54 Partly Cloudy 80 26.7 70 21.1 71 71 W 12 19 29.86 1011 10 16 N/A
10:54 am 10:54 Mostly Cloudy 84 28.9 71 21.7 65 65 W 10 17 29.85 1011 10 16 N/A
11:54 am 11:54 Mostly Cloudy 85 29.4 71 21.7 63 63 W 7 11 29.86 1011 10 16 N/A
12:54 pm 12:54 Mostly Cloudy 86 30 71 21.7 61 61 W 8 13 29.87 1012 10 16 N/A
1:54 pm 13:54 Mostly Cloudy 86 30 70 21.1 59 59 WNW 7 11 29.86 1011 10 16 N/A
2:54 pm 14:54 Mostly Cloudy 89 31.7 70 21.1 53 53 WSW 8 13 29.84 1011 10 16 N/A
3:54 pm 15:54 Mostly Cloudy 91 32.8 70 21.1 50 50 SW 7 11 29.83 1010 10 16 N/A
4:54 pm 16:54 Mostly Cloudy with Thunderstorms 80 26.7 68 20 67 67 SSW 12 19 29.83 1010 10 16 N/A
5:13 pm 17:13 Mostly Cloudy 79 26.1 67 19.4 67 67 SSW 9 15 29.84 1011 10 16 N/A
5:54 pm 17:54 Mostly Cloudy 83 28.3 70 21.1 65 65 SW 8 13 29.84 1010 10 16 N/A
6:54 pm 18:54 Partly Cloudy 81 27.2 70 21.1 69 69 SW 7 11 29.84 1011 10 16 N/A
7:54 pm 19:54 Partly Cloudy 79 26.1 71 21.7 77 77 SW 9 15 29.88 1012 10 16 N/A
8:54 pm 20:54 Partly Cloudy 76 24.4 69 20.6 79 79 NNW 7 11 29.91 1013 10 16 N/A
9:54 pm 21:54 Partly Cloudy 76 24.4 69 20.6 79 79 N N/A 29.92 1013 10 16 N/A
10:54 pm 22:54 Partly Cloudy 76 24.4 68 20 77 77 NNW 5 7 29.92 1013 10 16 N/A
11:54 pm 23:54 Mostly Clear 73 22.8 69 20.6 87 87 W 5 7 29.94 1014 10 16 N/A

Powered by AerisWeather